Theta_e
307 306 306 306 306 306 306 306 306 306 305 306 306 305 305 305 305 305 305 304 304 304 304 304 304 304 304 304 304 304 304 304 303 303 303 304 304 305 305 304 304 305 305 305 305 305 306 306 307 307 307 308 308 309 309 309 310 310 311 311 311 311 310 309 309 309 309 310 309 309 309 308 307 306 306 306 306 306 306 306 306 306 306 305 305
306 306 305 305 305 305 305 305 305 305 305 305 305 305 305 305 305 305 304 304 304 304 304 304 303 303 303 303 303 303 303 302 302 302 302 302 302 302 302 302 302 303 303 303 303 303 304 304 304 304 305 305 306 306 306 307 307 308 309 309 309 310 310 310 309 308 308 309 309 308 308 307 306 306 305 305 305 305 305 304 304 304 304 304 303
305 305 305 305 305 305 305 305 305 304 304 304 304 304 304 304 304 303 303 303 303 303 303 303 303 303 303 302 302 302 302 302 301 301 301 301 301 301 300 301 301 301 302 302 302 302 302 303 303 303 303 303 304 304 304 304 305 305 306 306 307 307 308 308 308 307 307 307 307 307 307 307 306 305 305 304 304 303 303 303 303 302 302 301 300
304 304 304 304 304 304 304 303 303 302 302 302 302 302 301 301 301 301 301 301 301 302 301 301 301 302 302 302 302 301 301 301 301 301 300 300 300 300 300 300 300 300 300 301 301 301 301 301 301 301 302 302 302 302 302 302 303 303 304 304 304 305 305 306 306 306 305 306 306 306 306 306 305 304 303 302 302 301 301 301 301 300 299 298 298
303 303 303 303 302 302 301 301 300 300 300 300 300 300 300 299 299 299 299 299 299 299 299 300 300 300 300 300 300 300 300 300 300 300 300 300 299 299 299 299 299 299 299 300 300 299 300 300 300 300 300 300 300 300 300 301 301 302 302 302 303 303 303 304 304 304 304 304 304 304 304 304 304 303 302 301 300 299 299 298 298 296 295 295 295
302 302 301 301 300 300 300 299 299 299 298 298 298 298 298 298 297 297 297 297 297 298 298 298 298 298 298 298 299 299 299 299 299 299 299 299 299 298 298 298 298 298 298 298 298 298 298 299 299 298 298 298 298 299 299 299 300 300 301 301 301 302 302 302 302 302 302 302 302 303 303 303 303 302 301 300 299 298 296 295 294 293 293 293 292
300 300 300 299 299 299 298 298 297 297 296 296 296 296 295 295 295 295 295 296 296 296 296 296 297 297 297 297 297 298 298 298 298 298 298 297 297 297 297 297 297 297 297 297 297 297 297 298 298 298 297 297 297 298 298 298 299 299 299 300 300 301 301 301 301 301 301 301 301 301 302 302 302 300 299 298 296 295 294 292 291 291 290 290 290
299 299 298 298 297 297 296 295 295 295 294 294 294 294 294 293 294 294 294 294 294 295 295 295 295 295 295 296 296 296 297 297 297 297 297 297 296 296 296 296 296 296 296 296 296 296 296 296 297 297 297 297 296 297 297 297 297 298 298 299 299 299 300 300 300 300 300 300 300 300 300 301 300 298 296 294 292 291 292 292 291 290 289 288 288
298 297 296 296 295 295 294 294 293 293 293 293 293 293 293 292 292 292 292 292 293 293 293 293 293 294 294 294 295 295 295 296 296 297 297 296 296 295 295 295 295 295 295 295 295 295 295 295 296 296 296 296 295 295 295 295 296 297 297 297 298 298 298 299 299 299 299 299 299 300 299 299 299 297 294 292 291 292 292 291 290 289 288 288 287
296 295 295 294 293 293 293 293 293 292 292 292 292 292 292 292 292 292 292 292 292 292 292 292 292 293 293 293 293 294 294 294 295 296 297 297 296 295 295 294 294 294 295 295 295 295 295 295 295 295 295 295 294 294 294 295 295 295 296 296 297 297 297 297 297 298 298 298 298 299 298 298 299 298 295 294 293 292 291 290 289 288 287 287 287
294 293 293 293 292 292 292 292 292 292 291 291 291 291 291 291 291 291 291 291 291 291 291 292 292 292 292 292 292 293 293 293 293 294 295 296 296 296 295 294 294 294 294 294 295 295 294 294 294 294 294 294 294 294 294 294 294 294 295 296 296 297 296 296 296 296 297 297 297 298 298 298 298 298 297 295 293 291 290 290 289 288 287 287 287
293 292 292 292 292 292 291 291 291 291 291 291 291 291 291 291 291 291 291 291 291 291 291 291 291 291 291 291 292 292 292 292 292 292 293 295 296 296 295 294 294 294 294 294 294 294 294 294 294 294 294 294 294 294 294 294 294 294 295 295 296 296 296 296 296 295 296 296 296 297 297 297 298 298 297 296 294 292 290 289 288 287 287 287 287
292 292 291 291 291 291 291 290 290 290 290 290 290 290 290 290 290 290 290 290 290 290 290 290 290 290 290 291 291 291 291 291 291 292 292 293 294 295 294 294 294 294 294 294 294 294 294 294 293 293 293 293 293 294 294 294 294 294 294 295 295 296 296 296 296 295 295 295 295 296 296 296 297 297 297 296 295 292 290 288 288 287 287 287 287
291 291 291 290 290 290 290 290 290 290 290 290 290 290 290 290 289 290 290 290 290 290 290 290 290 290 290 290 290 290 290 290 291 291 291 292 293 294 294 294 293 293 293 293 293 293 293 293 293 293 293 293 293 293 293 293 293 294 294 294 294 294 295 295 295 295 295 295 294 294 295 296 296 296 296 296 295 293 290 288 288 287 287 287 287
290 290 290 290 290 290 290 290 289 289 289 289 289 289 289 289 289 289 289 289 289 289 289 289 289 289 289 289 289 289 290 290 290 290 291 291 292 293 294 293 293 292 292 292 293 293 293 293 292 292 292 292 292 292 292 292 292 293 293 293 293 293 293 294 294 294 294 294 294 294 295 295 295 295 295 295 295 294 292 290 289 288 286 286 285
289 289 289 289 289 289 289 289 289 289 289 288 289 289 289 289 289 289 289 289 289 289 289 289 289 289 289 289 289 289 289 289 289 289 290 290 291 292 293 292 291 291 291 292 292 292 292 292 292 292 292 292 292 292 292 292 292 292 292 292 292 292 292 293 293 293 293 293 293 294 294 294 294 294 294 294 293 293 291 290 288 287 285 285 284
288 288 288 288 288 288 288 288 288 288 288 288 288 289 289 289 289 289 289 289 289 289 289 289 289 289 289 289 289 289 289 289 289 289 289 289 290 291 291 291 290 290 290 291 291 291 291 292 292 292 292 292 292 291 291 291 291 291 291 291 291 291 292 292 292 292 292 293 293 293 293 293 293 293 293 292 292 292 290 288 286 286 285 284 283
287 287 287 287 287 287 287 287 287 288 288 288 289 289 289 289 289 289 289 289 289 289 289 290 290 290 289 289 289 289 289 290 290 289 289 289 289 289 290 289 289 289 290 290 290 291 291 291 291 291 291 291 292 291 291 291 291 291 291 291 291 291 291 291 291 291 292 292 292 292 292 292 292 292 292 291 291 291 290 288 286 285 285 284 283
286 287 287 287 287 287 287 288 288 288 289 289 289 289 289 289 289 289 289 289 289 289 289 289 289 289 289 290 290 289 290 290 290 290 289 289 289 289 289 289 289 289 290 289 290 290 290 291 291 291 291 291 291 291 291 291 291 291 291 291 291 291 291 291 291 291 291 291 291 291 291 291 291 291 291 290 290 290 290 289 287 286 285 284 283
286 287 287 287 288 288 288 289 289 289 289 289 289 289 289 289 288 288 288 288 288 288 288 288 288 289 288 289 289 289 289 290 290 290 289 288 289 289 289 288 288 288 289 289 289 289 289 290 290 290 290 291 291 291 291 291 291 291 291 290 290 290 290 290 290 290 290 290 290 290 290 290 290 289 290 290 289 289 289 288 287 286 285 284 283
287 287 288 288 288 289 289 289 289 289 288 288 288 288 288 288 288 288 288 288 287 287 288 287 287 288 288 288 288 288 288 288 289 289 289 288 288 289 289 288 288 288 288 288 288 288 288 289 289 290 290 290 290 290 289 289 290 290 290 290 290 289 290 290 290 290 290 290 289 289 289 289 288 288 288 288 288 288 287 287 286 286 285 284 283
287 288 288 289 289 289 289 288 288 288 288 288 288 288 288 287 287 287 286 286 286 286 286 286 286 286 287 287 287 287 288 288 288 288 288 288 288 288 288 288 288 288 287 287 287 288 288 288 288 289 289 289 288 288 288 289 289 289 289 289 289 289 289 289 289 289 289 289 288 288 288 287 287 286 287 287 286 286 286 286 285 285 285 284 283
288 288 288 288 288 288 288 287 287 287 287 287 287 287 287 287 286 286 285 284 284 284 284 284 285 285 285 286 286 286 287 287 287 287 288 288 288 288 288 288 288 288 287 287 287 287 287 287 288 288 288 287 287 287 287 288 288 288 288 288 289 289 289 289 289 289 288 288 288 287 286 285 284 284 284 284 284 285 285 284 285 285 284 283 283
288 288 288 288 287 287 287 287 286 286 286 286 286 286 286 285 285 284 283 282 282 283 283 284 284 284 285 285 285 286 286 286 286 287 287 287 287 288 288 288 288 287 287 287 287 287 287 287 287 287 287 287 287 287 287 287 287 287 287 288 288 288 288 288 288 288 288 287 286 284 283 282 282 281 281 282 283 283 283 283 283 284 283 282 282
287 287 287 287 286 286 286 285 285 285 285 284 284 284 283 283 282 282 281 281 282 282 283 283 283 284 284 284 285 285 285 285 285 286 286 286 287 287 287 287 287 287 287 287 287 286 286 286 286 286 287 287 287 287 287 287 286 287 287 287 287 287 287 287 288 287 287 286 284 282 281 280 280 280 280 281 282 282 282 281 281 281 282 281 281
286 286 286 285 284 284 283 283 283 283 283 282 281 281 280 280 279 280 280 280 281 282 282 282 283 283 283 284 284 284 284 284 284 285 285 285 286 286 287 287 287 287 286 286 286 286 286 286 286 287 287 286 286 286 286 286 286 286 286 286 286 287 287 287 287 287 286 284 281 280 279 279 279 279 279 280 280 281 281 280 279 279 280 280 278
284 284 283 282 281 280 279 279 280 280 280 280 279 278 278 278 278 278 279 279 280 281 281 281 282 282 282 283 283 283 283 283 283 284 284 285 285 286 286 286 286 286 286 286 286 286 286 286 286 286 286 286 286 286 286 286 286 286 286 286 286 287 287 287 287 286 285 282 279 278 277 277 277 277 277 278 279 278 280 280 278 276 277 278 276
281 280 279 278 278 277 276 276 277 277 277 277 277 277 277 277 277 278 278 278 279 279 279 280 280 281 281 281 282 282 282 283 283 283 284 284 284 285 285 285 285 286 286 286 286 286 286 286 286 286 286 286 286 286 286 286 286 286 286 287 287 287 286 286 285 285 283 280 278 277 276 276 276 276 276 276 276 276 277 279 277 275 276 277 274
279 277 276 276 275 275 275 275 274 275 275 275 276 276 276 276 277 277 278 278 277 278 278 279 279 280 280 280 281 281 282 282 282 282 283 283 284 284 285 285 286 286 286 286 286 286 286 286 286 286 286 287 287 286 286 286 286 286 286 287 286 286 285 284 284 283 281 279 277 276 275 275 275 275 275 275 275 274 275 276 275 274 276 276 273
276 275 274 274 273 273 273 273 273 273 274 274 274 275 277 277 276 276 277 278 277 277 278 278 279 279 279 280 280 280 281 281 281 282 282 283 283 284 284 285 286 286 286 286 286 286 286 286 286 286 287 287 286 286 286 286 286 286 286 286 285 284 283 283 282 281 279 278 276 275 275 274 274 274 274 273 273 274 274 274 275 275 275 274 271
273 272 272 272 272 271 272 272 272 272 272 273 273 274 275 276 276 276 275 276 276 277 277 277 278 278 279 279 279 280 280 281 281 282 282 283 283 284 284 285 285 285 286 286 286 286 286 286 286 286 286 286 286 286 286 286 286 285 285 284 284 283 282 282 281 280 278 277 276 275 274 274 274 274 274 273 273 273 274 274 275 275 275 273 270
270 270 271 271 271 270 271 271 271 271 271 272 272 272 272 273 275 276 276 275 275 275 275 276 276 277 278 279 279 280 280 281 281 282 282 282 283 283 284 284 284 285 285 285 285 286 286 286 286 286 286 286 286 285 285 285 285 284 284 283 282 282 281 280 280 279 277 276 275 274 274 274 274 273 273 273 273 273 273 273 274 273 273 272 270
269 270 271 271 270 270 270 270 270 271 271 270 271 271 271 271 272 274 275 275 275 274 274 275 275 276 277 278 278 279 280 280 281 281 281 282 282 283 283 283 284 284 285 285 285 286 286 286 286 286 286 286 285 285 285 284 284 284 283 282 281 280 280 279 278 278 277 276 275 275 274 274 274 274 273 273 273 273 272 272 272 272 271 270 269
270 271 271 271 270 270 269 269 269 269 269 269 269 269 270 270 270 270 271 273 274 273 273 274 274 275 276 276 277 277 278 279 280 280 281 281 281 282 283 283 284 284 284 285 285 285 286 286 286 286 285 285 285 285 284 283 283 283 282 281 280 279 279 278 278 277 276 275 275 275 274 274 274 274 273 272 272 272 271 271 272 271 270 269 268
271 272 272 271 270 269 268 267 268 267 267 268 268 268 268 269 269 270 270 271 272 272 272 272 273 273 274 274 275 276 277 278 279 279 279 280 280 281 282 283 283 284 284 284 285 285 285 286 286 285 285 284 284 284 283 283 282 282 281 280 279 278 278 278 277 277 276 276 275 275 274 274 273 273 273 272 272 271 271 271 271 271 270 269 268
271 271 271 269 268 267 266 266 266 267 267 267 267 267 267 268 268 269 270 270 270 271 271 271 271 271 272 273 274 275 276 277 277 277 278 278 279 280 282 283 283 284 284 284 285 285 285 285 285 284 284 284 283 283 282 282 282 281 280 279 279 278 277 277 277 276 276 276 275 275 274 274 273 273 273 272 271 271 271 271 270 270 270 269 268
271 271 269 268 266 265 265 265 266 266 266 266 266 266 267 267 268 268 269 269 269 270 270 270 270 270 271 272 273 274 275 275 275 276 276 277 279 280 281 283 283 283 284 284 284 285 285 284 284 283 283 283 282 282 281 281 280 280 279 278 278 277 277 276 276 276 275 275 275 274 274 274 273 273 273 272 271 271 271 270 270 269 269 268 268
271 270 268 267 265 265 265 265 266 266 266 266 266 266 267 267 267 268 268 268 268 268 268 269 269 269 270 271 272 272 273 273 274 275 275 277 278 279 280 282 282 283 283 283 284 284 284 283 283 283 282 281 281 280 280 280 279 279 278 278 277 277 276 276 276 275 275 275 274 274 273 273 273 273 273 272 271 270 270 270 270 269 268 268 268
269 268 267 266 265 265 265 265 265 265 266 266 266 266 267 267 267 267 267 267 267 268 268 268 268 269 269 270 271 271 272 272 273 274 275 276 277 278 280 281 281 282 282 283 283 283 283 283 282 282 281 280 280 279 279 279 279 278 277 277 277 276 276 275 275 275 275 274 274 274 273 273 273 273 273 272 271 271 270 270 270 269 268 267 267
267 267 267 266 265 265 265 265 265 265 265 266 266 266 266 266 266 267 267 267 267 267 268 268 268 269 269 270 270 271 272 272 273 274 275 276 277 278 279 280 280 281 281 282 282 282 282 282 282 281 280 279 279 279 278 278 278 277 277 277 276 276 275 275 275 275 274 274 274 274 273 273 273 273 272 272 272 272 272 271 270 270 269 268 267
267 266 266 266 265 265 265 265 265 265 265 265 265 266 266 266 266 266 267 267 267 267 268 268 268 268 269 269 270 270 271 272 273 273 274 276 277 278 279 279 279 280 280 280 280 281 281 281 281 280 280 279 278 278 278 277 277 277 276 276 276 275 275 275 275 274 274 275 275 275 274 273 273 272 272 272 272 272 272 271 270 269 268 268 267
267 266 265 265 265 265 265 265 265 265 265 265 265 265 266 266 266 266 266 267 267 267 267 267 267 268 268 269 269 270 271 271 272 273 274 276 277 277 277 277 277 277 277 278 278 279 280 281 281 280 279 279 278 278 277 276 276 276 275 275 275 274 274 274 274 274 274 276 276 275 274 273 272 272 272 272 273 273 272 270 269 268 268 267 267
266 265 264 264 265 264 265 265 265 265 265 265 265 265 265 265 266 266 266 266 266 266 266 266 267 267 267 268 268 269 270 271 272 273 274 275 275 275 274 274 274 274 275 275 276 277 278 280 280 280 280 279 278 278 277 276 275 275 275 274 274 275 275 275 275 275 276 277 277 276 274 272 272 271 272 273 273 272 271 270 269 268 267 267 266
265 264 264 265 265 264 265 265 265 265 265 265 265 265 265 265 265 265 265 265 265 265 265 266 266 266 267 267 268 268 270 270 271 271 272 271 271 271 271 271 271 272 273 274 275 276 277 278 279 280 279 279 278 278 277 277 276 275 275 275 276 277 278 279 279 279 280 279 278 276 274 272 271 272 273 273 272 272 270 269 268 267 267 266 266
264 265 265 265 264 264 265 265 265 264 264 264 264 265 265 265 265 265 265 265 265 265 265 265 265 265 266 266 266 267 268 268 268 268 268 268 268 268 268 269 269 270 271 272 274 275 276 277 278 279 278 278 278 278 277 277 277 276 276 277 278 279 280 280 280 280 280 280 278 277 275 273 272 273 273 273 273 272 271 269 268 267 267 266 265
265 265 265 264 264 264 264 264 264 264 264 264 264 264 264 264 264 264 264 264 264 264 264 264 264 264 265 265 265 266 266 266 266 266 265 265 265 266 267 267 267 268 270 271 273 275 275 276 277 277 277 277 277 277 277 277 277 277 277 277 277 278 278 279 279 279 279 279 278 277 276 275 274 274 274 273 272 271 270 269 268 267 267 266 265
265 265 265 264 264 264 264 264 264 263 263 264 263 264 264 264 264 264 264 264 264 264 264 264 264 263 264 264 264 264 264 264 264 264 263 263 264 265 265 266 267 268 270 271 273 275 275 275 275 276 275 276 276 275 275 275 276 276 276 276 276 277 277 277 277 277 277 277 277 277 276 276 274 274 273 272 271 270 269 268 267 267 266 266 265
265 265 265 264 264 263 263 263 263 263 263 263 263 263 263 263 263 263 263 263 263 263 263 263 263 263 263 263 263 263 263 263 263 263 263 263 264 264 265 267 268 269 270 271 273 274 274 273 274 274 274 274 274 274 274 274 274 275 275 275 275 276 276 276 276 276 275 275 275 275 275 275 274 273 272 270 269 269 268 267 267 266 266 266 265
265 265 264 264 263 263 263 263 263 263 263 262 262 262 263 263 263 263 263 263 263 263 263 263 262 262 263 262 262 263 263 263 262 263 263 264 264 265 266 267 268 269 270 271 271 272 272 272 272 272 272 273 273 273 273 273 273 274 274 274 275 275 275 274 274 274 273 273 273 273 273 273 272 271 270 269 269 268 268 267 267 266 266 265 265
265 264 264 263 263 263 263 262 262 262 262 262 262 262 262 262 262 262 262 262 262 262 262 262 262 262 262 262 262 262 263 263 263 263 263 264 264 265 265 266 266 267 268 269 270 270 270 270 271 271 271 271 272 272 272 272 272 273 273 274 274 274 274 273 273 273 272 272 272 272 271 271 271 270 270 269 268 268 267 267 267 266 266 265 265
264 264 264 263 263 263 262 262 262 262 262 261 261 261 261 261 262 262 262 262 262 262 262 262 262 262 262 262 262 262 262 263 263 263 264 264 264 264 264 265 265 266 266 267 268 268 268 269 269 269 270 270 270 270 271 271 271 271 272 273 273 273 273 272 272 272 272 272 271 271 271 270 270 270 269 268 268 267 267 267 266 266 266 265 265
Wind_Speed
19 18 17 17 16 16 15 15 15 15 14 14 14 13 13 13 13 12 13 13 13 13 14 14 14 14 14 14 15 15 15 15 15 15 16 16 16 17 18 19 19 20 22 23 24 24 25 27 29 30 30 30 31 31 32 32 31 32 31 30 32 29 28 27 18 20 40 44 34 33 33 29 30 32 31 33 34 34 34 34 34 37 40 42 40
20 19 19 18 18 17 16 16 16 16 15 15 14 14 14 14 13 14 14 14 14 15 15 16 16 16 16 16 17 17 17 17 17 17 17 18 18 19 19 19 19 21 22 23 24 23 24 27 28 29 29 30 31 31 32 33 31 32 33 31 32 33 29 30 27 20 30 42 36 28 30 30 30 32 32 32 33 32 32 33 34 37 40 40 38
20 19 19 18 18 17 16 16 16 16 16 15 14 14 14 13 13 14 14 14 15 15 15 15 16 16 17 17 18 18 19 19 19 20 19 20 21 21 22 21 20 21 22 23 24 24 24 27 28 29 28 29 31 32 32 33 32 32 35 33 32 36 33 30 30 25 25 36 38 30 29 31 32 31 31 30 29 28 30 33 35 37 38 37 36
18 19 19 18 18 17 16 16 15 16 16 15 14 13 13 13 13 13 14 14 14 14 15 15 15 16 17 17 17 18 18 19 20 20 20 21 21 22 22 22 22 22 23 23 24 24 25 27 29 29 28 30 32 33 31 32 32 32 35 35 34 36 37 34 34 33 29 33 40 38 32 32 33 31 28 27 27 28 31 33 34 35 35 34 33
16 18 18 18 18 17 16 16 15 16 16 15 14 14 14 14 14 15 15 15 15 15 16 16 16 16 16 16 16 17 17 18 19 20 20 21 21 21 22 22 23 23 25 25 25 26 27 28 30 29 28 31 32 33 31 30 31 32 33 34 34 35 36 36 35 36 34 32 38 41 35 31 32 31 29 27 26 28 29 30 31 30 30 30 31
16 17 17 17 17 17 16 16 16 16 16 16 16 16 16 16 17 17 17 17 18 18 18 18 17 17 17 17 17 17 17 18 18 19 20 21 21 22 23 23 24 26 27 27 27 28 28 30 32 31 30 31 33 33 32 31 31 33 33 34 34 34 35 36 34 34 35 35 36 38 37 33 32 31 30 28 26 27 26 24 25 26 27 27 27
16 16 15 16 16 17 16 16 17 17 18 18 18 18 19 20 20 20 20 21 21 21 21 21 21 21 20 20 20 20 20 20 20 20 21 21 22 22 23 24 26 27 29 29 28 28 30 31 32 33 32 32 33 33 33 32 32 33 34 33 34 34 34 34 34 32 32 33 33 34 35 34 31 28 26 24 22 23 22 20 21 23 24 24 23
16 14 13 14 16 17 17 17 18 18 19 19 20 20 20 21 21 21 22 22 22 22 22 23 23 23 23 23 23 23 23 23 23 22 22 23 23 24 25 25 26 28 29 29 29 29 31 32 32 33 33 32 32 33 33 33 33 34 35 33 32 33 33 33 32 30 30 29 30 31 31 30 28 23 20 18 16 18 22 23 22 21 21 21 22
14 13 13 15 17 17 18 18 18 18 19 19 19 20 20 21 21 22 22 22 23 23 23 24 24 25 25 25 24 24 25 26 24 24 25 26 26 27 27 26 27 28 29 30 30 30 30 32 32 32 32 33 33 33 34 34 33 36 38 35 32 33 32 31 29 28 27 25 27 28 26 26 26 21 19 20 21 21 23 24 22 19 19 19 20
13 12 14 15 16 17 17 17 17 17 18 19 19 20 21 22 23 23 24 24 24 24 25 25 25 25 26 26 26 26 27 27 27 27 28 28 29 29 29 29 28 28 29 30 31 32 31 32 33 33 33 33 34 34 34 34 33 36 38 37 36 35 34 32 30 28 25 23 25 25 21 22 25 23 23 25 25 23 21 21 20 18 16 14 14
13 13 14 15 16 16 16 16 17 18 19 20 20 21 22 23 24 25 25 26 25 26 27 27 26 26 26 26 26 26 27 29 29 29 29 29 30 30 31 32 31 29 30 31 32 33 33 33 34 33 33 33 34 34 34 34 34 35 37 37 38 38 37 35 33 30 26 23 26 26 21 22 26 26 25 25 23 22 23 23 22 20 17 13 10
12 13 14 15 15 16 16 17 18 18 20 21 22 23 24 25 26 27 27 27 28 29 29 29 29 29 29 29 29 29 29 31 31 31 31 30 30 31 32 33 33 32 31 31 32 34 34 35 35 33 32 32 33 34 34 35 35 35 36 37 38 38 39 39 37 34 30 27 27 28 26 25 27 27 25 24 23 24 25 25 24 23 21 19 15
11 12 14 15 15 16 17 17 18 19 21 22 23 25 26 27 28 29 29 29 30 32 32 32 32 32 31 32 33 33 34 35 34 34 34 33 31 31 33 33 33 33 33 32 33 34 34 35 35 35 33 31 31 32 33 35 35 35 36 36 37 38 38 39 39 38 37 35 31 32 33 29 27 28 28 26 26 25 24 24 25 25 24 24 22
12 13 14 15 15 16 17 18 19 20 21 23 24 25 27 28 29 30 31 31 32 33 33 34 34 34 34 35 36 38 38 38 39 38 37 36 34 33 34 35 35 35 34 33 33 34 34 33 34 36 35 33 31 31 32 34 35 35 35 35 36 37 37 37 37 37 38 39 36 37 39 36 33 34 33 30 29 28 26 26 27 27 26 24 22
12 12 13 15 16 16 18 18 19 21 22 23 25 26 28 29 31 31 31 32 33 34 35 35 36 36 37 37 38 41 42 41 41 41 39 38 37 35 35 35 35 35 35 34 33 34 34 32 33 35 36 34 31 30 31 33 35 36 36 36 37 37 36 36 35 35 37 38 38 39 42 41 39 38 37 34 32 32 31 30 29 27 24 20 19
11 12 13 14 15 16 17 19 20 22 24 25 27 28 29 31 31 31 32 34 35 36 36 37 38 39 39 39 39 42 46 44 42 42 42 40 37 37 35 34 34 35 36 35 34 33 33 32 32 33 35 35 33 31 31 32 34 36 37 37 37 37 37 36 34 34 36 36 37 39 41 41 40 39 37 33 31 31 29 25 24 24 23 18 19
10 11 12 13 15 16 17 19 21 23 25 27 28 29 30 32 32 32 33 36 37 38 39 40 40 39 40 40 39 41 47 48 43 42 42 39 35 35 35 33 34 35 35 35 33 32 32 32 31 32 34 36 36 34 32 31 32 35 36 37 37 36 36 34 32 33 34 34 36 38 39 40 39 39 35 30 29 30 27 23 24 27 23 13 12
9 11 12 13 14 16 17 19 22 23 25 26 28 29 30 31 32 32 34 36 38 39 39 41 42 41 41 42 42 42 46 50 47 43 41 38 33 32 33 33 33 34 34 34 33 32 33 33 32 32 34 37 38 37 34 31 32 33 34 34 35 36 35 33 32 33 32 33 34 36 36 37 36 36 33 28 28 31 30 29 30 30 23 13 12
9 10 11 13 15 16 18 20 21 23 25 26 27 28 29 30 32 33 34 36 38 39 39 41 43 44 44 44 44 44 46 49 49 46 42 38 34 31 31 31 32 33 34 34 35 35 35 35 35 34 34 36 37 36 34 32 31 32 33 32 32 36 37 34 33 33 31 31 32 32 32 33 32 31 29 27 27 32 34 33 33 32 25 19 20
9 10 12 13 15 16 18 19 21 22 24 25 26 27 29 30 31 33 35 36 37 38 39 39 42 45 45 44 44 44 44 46 48 47 42 38 35 32 30 31 32 32 32 33 34 35 36 36 36 35 34 33 34 35 34 33 31 32 33 31 31 35 37 36 34 33 31 31 30 29 29 29 28 26 26 25 26 31 32 30 33 35 28 24 25
9 11 12 13 14 16 17 18 20 21 22 24 26 27 28 30 31 32 34 36 35 37 38 38 39 43 45 45 44 44 44 44 45 45 42 38 34 31 30 31 31 30 31 32 33 33 35 36 36 36 35 34 34 35 35 35 33 32 33 33 34 36 37 36 35 33 31 29 28 25 24 23 21 19 20 21 23 27 27 25 27 31 29 27 27
10 11 12 13 14 16 16 18 19 21 22 24 27 29 30 30 31 32 33 33 33 35 36 35 35 38 42 44 43 43 43 42 43 42 40 37 34 30 28 30 31 29 29 30 32 32 33 35 36 37 36 35 35 36 36 36 35 34 35 36 36 36 35 34 34 32 28 25 21 19 16 14 13 13 14 16 18 20 20 20 23 24 24 27 29
10 10 12 13 14 15 17 18 19 21 23 25 27 29 30 30 32 32 30 30 31 33 34 33 33 35 39 41 43 43 42 41 41 40 37 35 34 32 30 29 30 29 29 30 32 33 34 35 36 36 37 37 38 38 38 38 37 36 36 36 34 34 33 32 32 28 23 18 15 13 11 11 12 13 15 17 18 19 19 20 22 22 22 24 25
9 10 11 13 14 16 17 19 20 22 24 25 26 28 29 30 31 30 27 27 28 30 31 31 30 31 35 39 42 44 42 40 41 40 36 33 32 32 31 30 29 28 29 31 32 33 34 37 39 40 41 41 40 40 39 38 37 36 35 34 33 32 31 31 29 23 17 14 12 10 10 11 13 15 18 20 21 23 24 23 22 23 24 24 22
8 10 12 13 15 16 18 19 21 22 23 24 26 27 28 29 30 29 26 26 25 26 28 29 27 28 30 34 37 41 41 40 41 40 37 33 30 30 30 29 27 27 29 32 34 35 37 39 40 40 39 38 37 37 37 36 35 34 33 33 32 31 29 28 23 17 14 12 11 11 12 13 16 18 21 23 25 26 26 26 26 26 26 26 25
10 11 12 14 15 16 18 20 22 23 24 24 24 25 25 26 28 29 28 27 25 24 25 26 25 25 26 30 33 36 40 41 41 41 37 32 29 27 27 28 29 31 33 34 35 35 36 36 36 36 36 37 37 37 36 36 35 34 34 33 32 30 28 24 20 18 15 12 12 14 15 16 19 22 23 24 26 28 28 29 30 29 29 31 30
11 12 13 14 15 16 18 21 23 24 25 25 25 26 26 25 27 29 29 26 25 24 23 23 22 21 23 27 31 33 36 39 39 38 35 31 28 27 28 32 34 35 34 33 31 32 34 35 35 36 37 38 37 33 31 31 31 30 29 28 27 27 24 22 20 18 16 15 15 16 17 19 21 22 23 24 25 27 29 32 32 31 32 36 33
11 12 13 14 15 16 18 20 23 25 25 26 26 27 27 26 28 31 29 25 26 30 29 25 24 22 23 27 30 30 32 35 38 36 34 32 33 33 35 38 38 36 35 34 33 35 36 36 35 34 33 33 30 26 25 26 26 26 26 24 23 22 19 17 16 15 16 17 18 20 22 22 20 20 21 23 24 25 27 32 33 32 34 36 31
11 11 12 13 14 16 18 20 21 22 24 26 26 26 26 26 28 32 34 30 28 30 31 31 29 27 25 28 29 28 30 36 40 41 40 40 41 40 40 41 41 41 41 40 40 40 38 34 31 29 28 26 24 22 23 23 23 23 22 21 19 15 13 14 14 16 17 17 21 25 25 22 20 20 21 22 22 22 25 31 33 31 31 33 29
10 10 10 12 14 16 18 19 20 22 23 25 28 30 32 30 28 30 35 36 32 28 28 31 34 33 32 34 34 32 35 40 44 45 45 46 45 44 42 42 42 44 44 43 42 39 34 30 28 27 25 23 21 20 21 21 20 20 19 16 13 12 13 14 15 17 19 21 25 25 23 21 20 20 22 22 21 21 23 27 29 29 31 32 30
8 8 9 11 14 16 17 18 20 22 22 22 25 30 35 38 36 31 29 32 35 34 32 32 33 33 34 38 40 40 40 42 42 42 43 44 45 45 45 44 43 42 42 40 38 35 30 26 26 26 24 22 20 19 19 19 19 19 17 12 10 12 14 15 17 18 21 25 25 22 21 22 21 21 22 23 22 22 22 23 26 29 32 33 31
5 8 10 12 14 16 17 17 18 19 20 20 21 23 26 32 39 41 35 30 32 36 37 35 33 32 31 33 36 39 41 42 42 42 41 42 43 44 45 46 44 41 39 37 35 32 28 25 25 24 22 20 18 18 19 18 19 18 15 11 10 12 14 16 18 20 23 26 27 23 21 21 21 22 23 24 24 22 21 23 26 28 29 30 30
6 9 11 12 13 14 15 16 16 17 18 18 19 18 18 20 27 38 44 43 40 37 33 30 28 29 30 30 31 34 37 40 42 43 42 42 42 42 43 44 43 41 38 35 31 29 26 25 24 23 20 18 17 19 19 19 19 16 12 11 11 12 13 15 19 21 22 24 27 26 22 22 23 24 22 23 23 22 21 24 26 28 28 27 25
7 8 10 11 12 13 14 14 15 16 16 16 16 16 17 18 21 25 33 40 43 43 39 33 27 25 28 31 32 33 35 37 38 40 41 41 41 40 41 42 41 38 35 31 28 26 25 24 23 20 18 17 18 19 19 19 17 14 11 10 11 11 13 16 19 20 19 21 24 24 22 23 25 25 23 22 21 21 23 25 27 27 28 27 24
7 8 9 10 11 12 13 13 14 14 14 15 15 16 17 19 21 22 24 27 30 35 39 40 36 31 29 31 34 35 36 35 34 36 38 39 40 40 39 37 34 31 28 25 24 24 24 23 21 18 17 18 19 19 18 17 15 13 12 12 12 13 15 18 19 18 19 21 22 22 22 23 24 25 24 23 22 23 25 25 26 27 27 27 25
7 8 9 9 10 12 13 13 14 15 16 16 17 18 19 19 20 21 23 25 26 28 32 36 37 35 32 30 30 32 34 35 34 36 38 38 38 37 34 29 27 26 25 24 24 24 24 22 20 19 19 19 18 17 15 14 13 13 13 13 14 16 17 18 19 18 19 20 21 21 22 23 23 23 22 21 23 25 25 24 24 25 26 26 26
6 7 8 8 10 12 13 13 14 15 17 17 17 17 18 19 20 21 22 24 25 27 30 32 34 34 33 31 29 30 34 37 37 36 34 32 31 30 28 26 25 25 24 25 25 24 22 20 19 19 19 17 16 14 13 13 13 13 12 13 15 17 17 18 19 20 20 21 21 22 22 22 23 23 22 21 21 23 23 23 24 23 23 25 25
6 7 7 8 9 10 12 13 14 15 15 15 15 15 16 18 19 21 22 24 25 26 28 30 31 31 31 33 33 34 36 37 36 33 31 28 27 26 26 26 26 25 25 27 26 22 19 18 18 18 17 15 13 13 13 13 13 12 12 13 15 16 16 17 19 20 20 20 21 22 22 22 22 22 21 21 22 23 23 24 24 24 23 23 22
5 6 6 7 8 9 10 12 13 13 13 12 13 14 16 18 19 20 22 23 25 25 27 28 29 29 30 32 34 35 36 36 35 33 32 30 28 26 26 27 27 27 27 27 25 21 18 18 18 17 15 13 13 13 13 13 13 13 14 15 16 17 17 18 19 20 20 20 20 21 21 21 22 21 19 19 23 25 25 24 25 25 25 23 21
4 5 6 7 8 9 10 11 11 11 11 12 13 15 16 17 19 21 22 23 25 26 27 27 29 29 30 31 33 34 35 36 35 33 32 31 30 28 27 27 28 28 28 27 25 22 19 18 17 16 14 13 12 12 11 12 13 13 14 16 18 18 18 18 19 20 20 20 20 20 21 21 22 21 18 19 24 26 26 25 25 25 24 23 22
4 5 6 7 8 8 8 9 10 10 10 11 13 15 16 17 18 20 22 23 24 27 28 28 29 30 30 31 34 35 34 35 35 33 32 31 30 29 28 27 27 28 28 26 24 22 19 17 15 14 13 12 11 10 10 11 12 13 15 16 17 18 18 19 19 20 20 20 20 20 20 21 23 22 19 20 24 26 25 25 25 24 23 23 23
4 5 5 6 6 7 7 8 9 10 11 12 13 14 16 17 19 19 21 22 23 25 27 28 29 30 30 31 34 35 34 32 32 32 31 30 29 29 28 28 29 29 28 25 22 20 17 15 13 13 12 10 9 9 9 9 11 12 14 16 16 17 19 19 19 19 19 19 19 19 19 20 22 22 21 22 25 26 25 25 24 23 23 23 23
3 4 5 5 5 6 7 8 9 10 11 12 14 15 16 17 18 18 19 21 22 23 25 27 29 30 31 31 32 32 31 29 29 29 30 30 29 30 31 31 32 32 30 24 20 17 15 12 10 10 10 9 8 8 8 8 9 11 13 15 16 17 18 19 19 18 17 16 16 17 18 20 21 22 22 23 25 26 25 24 23 23 22 23 22
3 3 4 5 6 7 8 9 9 11 12 13 14 15 16 17 17 18 19 20 20 21 22 24 27 29 30 31 30 29 28 28 29 29 30 30 31 33 33 33 33 31 27 21 17 14 12 9 7 7 8 7 7 6 6 6 7 9 11 12 13 14 15 16 16 15 15 15 16 16 17 20 21 22 23 24 25 25 24 24 24 23 22 22 22
2 3 4 6 7 8 9 9 10 10 12 13 14 15 16 16 16 17 18 19 20 20 21 22 24 27 28 29 29 28 28 29 29 29 30 32 34 34 34 32 30 27 22 18 14 10 6 4 4 5 6 7 7 6 4 4 4 6 7 8 9 9 10 10 11 12 13 14 15 17 18 20 22 23 24 25 25 25 24 25 24 23 23 23 22
2 3 5 6 7 8 9 9 9 10 11 12 14 15 15 15 16 17 18 18 18 20 21 21 22 24 25 26 27 28 29 29 29 28 30 34 34 32 30 28 24 20 16 12 8 4 3 4 5 5 6 7 7 6 4 3 3 4 4 4 5 6 6 6 8 9 11 12 13 16 19 21 22 23 24 24 23 23 23 24 24 23 23 23 22
2 4 5 6 7 9 9 9 9 10 11 12 13 14 15 15 16 17 17 17 18 19 20 21 22 22 23 24 26 26 27 28 28 27 29 31 31 27 25 23 19 14 10 7 6 6 6 6 6 6 5 5 5 4 3 2 2 3 3 3 3 3 3 4 6 7 9 10 12 15 19 21 22 23 23 22 22 22 23 23 23 22 22 22 21
3 4 6 7 8 9 10 10 10 10 11 12 14 14 15 16 16 16 16 17 18 19 20 21 22 22 23 25 27 27 26 27 28 29 30 30 29 26 23 21 17 14 11 10 9 8 8 8 7 6 5 4 3 2 1 1 2 2 3 4 4 4 5 6 7 8 9 10 12 14 17 19 21 22 22 22 22 22 22 23 23 21 21 21 20
4 5 7 8 9 10 10 11 11 12 13 14 15 15 15 16 16 16 17 18 18 19 20 21 22 23 24 26 29 29 28 28 31 32 31 30 29 27 24 21 19 16 14 12 11 10 10 9 8 7 6 6 5 5 5 4 4 4 4 5 6 7 8 9 10 11 11 11 12 14 15 16 18 19 20 20 21 21 21 21 21 20 20 20 19
6 7 9 10 11 12 12 12 13 13 14 14 15 15 16 16 17 17 18 18 19 20 21 21 22 22 23 24 27 29 30 30 30 30 30 29 28 26 24 22 21 19 17 14 13 12 11 10 9 9 8 7 7 7 7 7 7 7 6 6 7 9 9 10 10 11 11 10 11 11 12 13 15 17 18 19 19 19 19 19 19 19 19 19 19
7 8 10 11 12 12 13 13 13 14 14 14 15 15 16 17 18 19 19 19 19 20 21 21 22 22 23 24 25 26 27 28 28 28 28 27 27 26 25 24 22 20 19 17 15 13 12 11 11 11 10 9 9 8 8 8 8 8 7 7 7 8 8 9 9 9 9 9 10 10 11 12 13 15 17 17 17 17 17 17 18 18 18 18 18
Wind_Direction
114 111 108 107 104 100 98 95 93 89 83 79 73 66 61 54 49 44 40 35 30 27 25 22 17 14 10 6 1 356 352 347 340 330 321 313 306 299 296 294 291 289 288 288 286 285 283 281 281 279 279 279 277 277 276 276 275 272 269 267 263 258 251 249 248 265 274 274 273 273 274 273 274 274 274 273 270 268 268 268 269 272 272 272 272
112 110 107 104 100 96 93 89 86 82 77 71 66 60 55 49 43 40 36 32 28 26 23 20 17 15 11 7 5 0 355 350 345 338 330 323 318 312 307 303 297 295 293 293 292 291 289 286 285 285 283 280 278 278 278 277 276 274 271 268 265 263 256 251 253 258 271 276 274 272 274 274 274 274 273 272 271 270 269 269 272 271 268 268 267
110 108 105 101 96 92 87 83 80 76 72 67 63 58 53 48 42 37 34 29 26 23 20 17 13 11 9 6 3 359 356 352 347 342 336 331 327 323 319 313 306 301 297 296 296 295 293 290 289 290 288 285 282 281 280 279 277 275 274 271 268 268 264 258 259 262 270 277 278 276 277 278 276 275 273 272 271 271 272 274 274 269 265 264 262
108 106 103 99 95 90 86 82 78 75 71 66 62 58 53 48 41 37 33 28 24 19 16 14 10 7 5 2 360 356 353 349 346 343 338 332 327 323 320 316 311 308 302 299 298 297 295 292 291 292 290 287 286 285 284 282 279 277 275 273 270 269 268 264 261 262 267 275 278 277 277 277 275 273 272 270 270 271 273 273 269 264 261 260 260
105 103 102 100 96 91 86 81 75 71 68 63 58 53 48 43 37 33 30 25 21 17 13 11 7 5 1 358 355 353 350 346 343 341 337 333 327 321 317 313 309 307 304 300 298 297 295 293 292 293 290 288 287 287 286 284 282 280 276 275 273 270 270 266 261 261 262 266 273 276 276 273 271 271 269 268 269 271 270 266 261 259 258 258 258
103 100 98 96 92 87 81 74 68 63 59 54 49 44 39 34 30 26 22 19 16 13 10 7 5 2 359 357 354 351 350 347 343 341 338 334 328 322 318 313 309 307 306 302 298 297 295 294 294 294 291 288 287 288 288 286 284 281 278 277 276 273 271 268 265 262 260 262 268 273 274 271 268 268 267 266 267 265 261 258 255 254 254 253 253
100 93 89 87 83 78 72 64 59 52 47 43 37 33 29 24 21 17 14 12 9 6 3 1 359 357 355 353 351 349 348 348 345 343 340 335 328 322 317 313 309 308 308 305 300 298 296 296 296 295 292 289 287 288 288 287 285 282 280 278 277 274 271 269 268 264 261 263 265 268 270 270 268 266 267 266 263 256 249 245 248 248 245 243 242
95 87 82 78 74 70 63 56 51 44 39 34 29 24 20 16 13 10 7 4 2 359 356 354 352 351 350 347 345 343 342 343 342 340 337 333 329 324 319 315 310 307 307 306 303 300 298 297 297 295 293 290 288 288 287 286 285 284 282 280 277 275 272 270 268 265 263 263 264 266 268 268 266 262 260 254 240 238 240 238 240 240 234 233 233
91 85 77 72 67 63 56 49 44 38 32 26 21 16 12 9 5 2 360 357 355 353 351 349 347 346 344 342 340 339 338 338 337 334 333 332 329 326 321 316 312 308 306 306 304 302 300 298 297 296 295 294 292 290 288 287 284 282 282 281 278 276 273 272 269 266 264 263 263 266 265 265 264 254 245 238 230 238 244 236 234 236 228 224 223
90 82 73 67 61 56 50 42 35 30 24 18 14 9 6 3 359 357 355 353 351 350 348 347 346 342 340 338 336 335 334 334 334 331 331 330 328 325 322 317 313 310 306 305 305 305 303 301 299 298 298 297 296 294 291 290 286 282 282 281 278 275 274 273 270 266 264 262 263 264 262 262 262 252 245 244 241 242 239 227 224 224 212 207 207
86 77 68 61 55 49 42 34 27 22 17 13 9 6 3 360 357 355 354 352 350 349 348 346 344 341 338 335 333 330 329 331 332 330 329 329 327 324 320 317 313 309 306 303 303 304 303 302 300 299 298 297 296 295 293 292 290 287 285 283 279 276 273 271 270 269 266 263 263 263 260 261 263 259 252 249 243 236 230 225 218 206 194 187 185
79 70 61 54 47 41 34 28 23 17 13 9 6 4 1 358 357 354 352 351 348 347 346 343 341 340 336 333 330 328 327 329 330 329 327 327 325 322 318 315 311 307 305 302 300 302 302 302 301 299 298 297 296 295 293 292 292 290 288 285 281 279 275 271 270 269 267 265 264 263 261 261 264 263 255 247 242 234 229 225 215 204 198 193 187
73 64 55 47 41 35 29 23 19 14 10 6 3 2 359 356 354 351 348 347 345 343 342 340 338 337 334 331 329 326 327 328 329 327 326 325 325 321 316 313 309 304 302 300 299 299 300 301 301 300 300 300 297 295 294 293 293 292 289 285 282 280 278 276 273 271 268 266 264 264 264 263 264 264 261 255 246 233 223 218 214 209 205 200 195
66 58 49 41 35 30 23 18 14 9 5 3 0 358 355 352 350 347 344 343 342 340 338 336 334 333 331 329 327 325 325 326 326 325 324 324 324 320 315 311 307 303 300 298 297 297 297 297 298 299 300 301 298 296 295 293 293 292 289 286 283 281 280 279 277 276 273 268 264 265 267 268 265 265 266 264 251 236 223 217 214 210 206 205 197
59 53 44 35 28 24 18 13 9 5 1 359 357 354 351 348 346 344 342 340 338 337 335 333 331 330 329 327 325 323 322 323 324 322 321 321 321 318 314 310 306 301 299 297 295 295 296 294 294 295 297 298 297 296 295 294 293 293 290 288 286 284 282 280 278 277 276 273 269 269 271 271 269 268 270 269 259 246 235 227 220 210 197 189 179
53 47 39 28 22 18 12 8 5 1 359 356 353 350 348 345 343 342 339 337 336 335 333 331 329 328 327 326 323 321 321 321 321 320 319 319 318 316 312 308 304 300 298 297 295 294 294 292 291 292 293 294 295 295 294 294 294 292 291 289 288 286 284 283 282 280 278 277 274 273 274 274 274 274 274 272 262 248 232 221 211 192 173 163 163
47 41 31 21 16 12 8 4 1 358 355 352 349 347 345 343 342 340 338 336 335 334 332 330 329 327 325 325 323 320 320 321 320 319 318 317 315 314 310 305 302 299 297 297 296 294 294 292 290 290 291 292 295 295 294 294 293 291 290 290 289 288 287 287 286 283 281 280 278 276 277 276 277 277 275 267 256 238 214 194 185 175 167 162 162
40 33 23 15 12 8 4 1 358 354 351 348 346 344 343 341 340 339 337 335 333 332 331 329 327 326 324 323 322 320 319 320 320 318 318 316 313 309 307 304 300 299 298 298 299 297 296 295 293 290 291 293 296 298 296 293 290 289 289 289 289 288 289 291 290 286 283 282 279 278 278 277 277 278 271 258 246 232 211 194 185 177 173 173 161
30 24 16 10 8 4 360 356 352 348 346 345 343 342 341 339 338 336 335 333 331 330 329 327 325 324 323 322 321 319 318 318 319 318 317 317 313 307 303 300 296 297 298 299 300 300 297 297 296 293 293 296 297 299 298 294 289 287 288 288 287 287 290 292 291 288 285 282 279 277 278 279 280 277 265 249 238 229 217 204 191 182 177 172 162
21 15 9 6 3 358 353 350 347 344 343 341 340 340 339 337 336 334 333 332 330 328 327 325 323 322 321 320 319 318 316 316 317 317 316 315 314 307 300 295 292 295 298 298 299 299 298 298 298 296 297 298 297 298 297 294 290 287 287 285 283 286 291 293 291 288 285 281 278 277 278 279 278 270 254 239 228 220 212 204 194 187 180 171 166
12 7 3 359 355 352 348 345 344 342 341 339 338 338 339 337 335 334 332 330 328 325 324 323 321 319 319 319 317 317 315 314 314 314 313 312 312 307 298 293 291 292 295 295 295 295 296 297 298 298 299 298 297 297 295 292 290 287 284 282 281 285 290 291 290 289 283 278 276 276 274 271 265 253 239 226 215 206 201 197 193 189 183 174 170
3 360 357 354 350 349 345 343 342 340 341 341 339 337 337 336 333 332 331 328 325 323 322 320 318 316 316 316 316 316 316 314 312 312 312 310 310 306 298 293 292 291 290 290 292 292 293 295 297 298 299 299 299 297 294 292 290 286 282 282 283 285 287 287 289 287 279 272 269 265 258 246 229 215 204 194 187 186 186 185 185 185 183 178 174
358 355 353 351 348 345 343 342 343 343 343 342 340 337 336 333 331 331 330 326 323 321 320 319 317 314 314 315 315 315 315 314 312 311 311 309 308 305 299 296 295 291 286 285 288 291 293 295 296 298 299 300 299 297 295 292 289 285 283 283 283 284 285 285 286 281 268 257 251 240 225 206 187 174 167 164 163 164 164 166 172 175 174 173 174
356 352 349 348 345 343 343 343 344 344 344 341 338 336 334 332 331 329 327 323 320 318 317 317 315 312 312 313 314 314 314 312 310 309 308 307 306 303 301 300 299 296 290 287 288 289 291 293 295 297 299 300 300 299 296 293 290 286 284 284 284 285 284 282 279 268 247 234 227 208 186 176 169 160 154 152 153 153 150 149 155 161 160 158 158
354 349 346 346 345 344 344 345 344 343 342 340 338 335 334 331 329 326 323 319 315 312 312 313 311 308 307 306 307 310 312 310 308 307 307 307 305 303 301 301 301 299 295 292 291 290 290 292 295 297 299 299 300 300 297 295 293 289 287 286 285 283 281 277 267 246 222 213 199 177 168 170 169 162 155 152 149 147 144 139 138 143 146 144 140
353 349 346 346 346 347 346 345 344 342 340 339 336 332 329 326 323 321 319 316 311 306 307 307 304 301 301 301 301 306 308 307 306 306 307 308 307 304 302 302 301 300 297 295 294 293 292 293 294 295 296 297 297 296 295 294 293 291 289 287 283 278 276 267 248 225 209 193 177 171 172 170 164 156 150 148 147 144 141 136 129 130 136 136 128
352 349 348 346 346 346 345 342 342 341 339 336 332 328 325 322 318 315 313 311 308 303 301 299 296 295 296 298 300 302 303 303 303 304 306 307 307 305 304 302 302 301 299 297 296 294 293 293 293 293 294 294 293 291 291 292 292 291 289 286 281 278 271 254 234 216 198 182 174 171 165 156 150 146 144 145 144 141 143 141 133 128 133 133 123
352 349 348 347 346 343 341 339 338 337 335 332 329 325 322 319 315 311 308 303 300 300 298 292 289 292 294 296 298 299 298 297 298 300 303 303 303 303 302 300 299 298 297 296 295 295 294 293 293 292 292 291 288 287 289 291 290 288 286 284 281 274 257 235 216 197 186 182 173 161 151 144 140 138 138 138 137 137 140 141 136 133 135 133 124
350 350 348 346 342 337 335 335 334 332 331 328 324 320 317 315 312 309 308 304 296 295 295 291 289 291 291 289 291 293 292 292 295 298 299 299 300 300 299 297 296 295 296 297 297 296 294 292 291 290 289 286 282 283 289 291 289 287 285 281 273 254 225 206 192 183 182 176 161 152 149 143 138 137 134 130 131 134 136 136 134 134 135 132 126
350 350 344 336 333 331 330 331 332 331 328 325 323 322 321 319 312 305 308 311 305 292 284 283 288 291 289 286 285 285 284 286 292 296 298 299 299 299 298 297 295 295 296 298 297 294 291 289 287 286 285 281 278 281 288 289 287 286 283 273 252 220 198 194 191 185 179 167 157 153 152 146 141 139 136 132 132 134 134 134 136 137 134 128 124
349 335 323 322 327 331 330 328 328 328 326 324 323 323 322 321 318 312 308 311 312 305 294 285 284 284 283 283 286 286 285 286 290 293 296 298 299 299 299 298 297 295 296 297 295 290 286 283 283 283 281 276 275 281 286 287 286 283 274 254 224 201 195 196 192 183 174 166 159 154 152 150 146 142 140 137 135 134 133 134 138 138 136 134 131
322 311 317 324 328 331 330 326 325 325 323 321 320 318 315 316 319 320 317 312 309 309 308 303 296 288 283 281 284 287 289 291 293 295 296 297 297 298 298 298 297 296 296 295 291 285 282 280 279 279 277 271 273 282 284 284 284 276 257 230 205 197 197 194 184 174 168 166 163 157 153 151 146 142 141 138 135 133 133 134 136 136 134 134 134
307 316 329 330 326 326 328 327 324 321 318 316 313 311 306 303 309 316 319 320 317 313 309 304 298 295 294 292 289 288 290 292 294 296 297 297 298 298 297 297 296 296 295 292 286 281 279 276 274 274 271 269 274 281 282 280 278 267 244 216 199 196 196 188 176 168 165 167 167 161 154 149 145 141 140 139 138 137 136 137 138 137 134 132 132
324 332 334 329 326 328 328 325 321 317 314 311 307 303 301 300 300 303 310 317 320 319 315 311 306 303 302 302 300 297 295 294 295 297 299 300 300 299 299 297 296 295 293 286 279 276 276 275 272 271 269 272 277 278 277 275 269 253 230 210 197 190 184 177 171 166 163 165 165 159 153 151 149 144 141 141 143 142 140 140 141 139 137 135 133
338 340 339 335 331 330 326 321 317 313 307 305 304 301 298 300 301 299 298 302 307 310 311 313 314 312 308 306 305 304 303 302 301 302 303 303 302 302 300 296 294 294 292 284 276 274 273 271 270 271 273 277 279 275 271 269 259 237 220 207 190 177 171 169 167 166 163 161 161 160 157 155 153 150 148 149 151 147 144 143 145 144 143 141 139
345 344 346 340 331 327 323 318 317 317 312 308 304 302 300 298 297 297 298 298 298 299 301 305 310 312 312 309 308 308 308 308 308 308 307 305 304 304 299 293 291 292 291 286 281 277 272 268 268 272 276 278 277 272 266 259 244 227 217 205 188 175 170 168 166 165 163 161 161 162 160 158 156 155 153 153 154 151 147 146 146 146 147 146 144
350 349 345 336 327 326 324 320 320 322 318 310 302 298 297 298 298 299 300 300 300 301 301 303 308 312 313 314 315 314 312 310 311 311 309 309 310 309 302 296 294 294 293 293 288 278 268 266 270 274 277 276 272 267 260 249 236 225 215 202 189 179 173 170 168 165 163 162 163 163 162 161 162 161 157 153 153 152 149 147 147 146 148 149 147
356 352 345 336 329 325 324 324 325 321 312 303 298 299 300 300 301 302 301 301 301 301 301 303 307 309 310 314 317 316 314 313 314 315 314 313 313 310 304 300 298 296 297 298 291 276 266 270 276 278 278 274 267 261 255 245 234 222 208 195 185 178 174 171 169 167 165 164 165 166 166 164 163 163 160 156 155 154 152 152 151 148 148 151 152
352 345 341 340 336 331 329 328 321 312 303 298 300 304 305 304 303 302 301 302 302 301 301 303 304 305 307 311 315 316 315 315 315 314 313 312 310 307 304 303 300 298 298 299 292 279 273 279 281 279 276 271 265 261 255 243 229 215 202 190 182 178 175 171 169 169 168 166 165 168 170 168 165 165 164 162 160 159 158 157 158 157 155 155 155
339 338 342 347 345 338 333 325 310 298 296 302 307 307 303 302 304 305 305 305 304 303 304 304 304 306 307 309 312 314 314 312 311 310 309 308 308 306 305 304 301 299 300 300 292 282 280 284 284 279 275 272 269 265 255 240 226 213 202 193 186 181 176 173 173 172 171 169 168 168 171 172 170 167 166 167 167 166 164 163 164 164 161 158 156
343 347 350 351 348 337 324 308 297 296 303 308 309 305 301 301 303 304 305 306 306 306 307 305 305 307 308 309 311 312 310 308 307 306 304 304 305 306 308 308 306 304 304 301 294 286 284 287 285 281 276 275 274 268 255 240 227 214 202 193 187 182 179 178 177 175 173 173 174 173 173 173 172 170 170 171 170 170 168 165 165 165 163 161 159
359 358 352 349 343 328 308 292 293 309 319 315 306 301 299 301 305 306 307 308 308 308 309 308 308 310 311 312 313 314 310 305 302 302 303 305 308 312 314 313 310 308 306 301 295 290 289 287 286 284 282 280 278 270 255 238 225 212 200 192 188 184 181 178 177 174 173 174 176 177 176 174 172 173 175 174 172 171 170 167 165 165 164 163 163
11 359 347 341 332 314 303 302 310 323 325 314 303 300 301 301 303 305 307 307 308 309 310 311 312 313 314 315 317 317 313 309 306 307 310 313 315 316 315 313 312 311 308 301 293 289 287 285 287 293 294 292 289 280 263 243 225 210 200 195 191 186 182 179 177 176 176 175 176 178 177 174 173 175 175 174 172 171 170 167 166 167 166 165 165
16 356 337 331 324 313 312 319 325 325 321 310 302 302 304 304 306 308 308 307 309 312 313 314 316 317 318 320 322 322 320 318 317 317 316 317 317 317 315 314 314 314 310 302 292 286 282 282 295 310 311 309 308 298 281 261 237 217 208 204 199 193 189 187 186 185 185 183 181 178 176 175 175 176 175 173 172 170 169 169 169 168 168 166 165
3 336 328 326 323 319 322 329 327 318 311 306 302 302 306 308 309 312 312 311 312 315 316 317 321 322 321 322 324 324 322 321 320 319 320 322 322 321 320 319 318 316 312 304 294 288 286 298 327 338 331 324 322 315 299 282 256 230 221 220 217 211 207 203 198 195 194 192 187 183 180 179 178 177 174 173 174 174 173 174 173 171 170 169 168
327 330 331 325 321 321 322 322 317 309 306 304 303 306 310 313 314 316 315 313 315 318 318 320 324 327 327 327 326 325 324 324 322 321 325 330 331 328 326 325 323 319 315 311 308 324 2 5 359 354 340 328 324 317 302 283 256 236 231 233 234 231 226 220 211 202 199 199 195 190 185 181 178 177 175 175 176 178 177 177 176 175 174 172 170
328 336 332 319 314 315 314 308 302 300 301 303 305 307 311 314 316 315 313 313 318 322 322 325 329 331 331 332 332 329 327 327 328 329 333 339 343 342 340 339 338 335 339 351 7 19 17 6 360 357 347 332 322 313 300 274 233 219 211 206 212 214 206 202 197 192 192 195 193 189 184 179 176 176 178 178 180 180 178 177 177 177 175 173 171
329 327 322 312 304 302 301 297 295 295 298 303 306 308 311 313 313 313 314 319 324 326 328 331 335 336 337 341 345 342 336 334 339 345 349 352 355 356 356 358 359 1 7 15 18 15 11 8 7 10 10 6 3 2 12 103 137 154 160 159 158 153 152 158 163 164 169 176 181 182 182 181 179 180 181 182 182 181 179 176 176 176 174 173 171
310 310 308 301 294 293 292 291 292 297 302 305 306 307 309 308 307 310 317 322 326 328 330 332 337 341 343 347 351 352 351 350 353 356 358 359 360 1 4 7 10 12 14 17 18 18 21 24 29 35 39 41 48 60 69 77 88 99 112 125 132 135 139 145 151 156 160 167 175 180 183 185 185 184 185 185 184 182 180 178 177 176 174 173 171
293 297 296 291 289 292 293 292 294 298 301 302 303 306 306 306 306 311 318 323 325 328 330 332 336 342 346 349 351 354 358 360 1 1 1 1 2 3 6 9 12 15 18 22 25 29 33 37 42 47 50 53 59 65 68 70 72 79 92 108 121 128 134 141 148 155 158 164 172 179 185 188 188 186 185 185 184 183 181 180 178 177 176 175 173
285 287 289 288 288 290 290 291 296 299 298 299 303 306 305 306 309 314 318 321 322 324 326 330 335 340 346 350 352 354 357 360 1 2 3 3 2 3 6 8 10 12 15 19 23 27 33 38 42 46 49 51 53 57 61 64 66 68 77 92 108 122 132 140 148 155 160 166 175 182 187 190 191 189 186 185 185 184 182 181 180 180 180 179 178